Location: Moosonee
(51.2731°N, 80.6400°W)
Time: 06:09:20
(UTC-05:00)

ISS - Visible Passes

Search period start: 23 November 2017 00:00
Search period end: 03 December 2017 00:00
Orbit: 402 x 407 km, 51.6° (Epoch: 23 November)

Date Brightness Start Highest point End Pass type
(mag) Time Alt. Az. Time Alt. Az. Time Alt. Az.
28 Nov -1.7 18:27:08 10° S 18:28:36 17° SSE 18:28:36 17° SSE visible
29 Nov -1.4 17:36:07 10° SSE 17:37:23 12° SE 17:38:30 10° ESE visible
29 Nov -1.3 19:10:06 10° SW 19:11:10 19° SW 19:11:10 19° SW visible
30 Nov -2.8 18:18:02 10° SW 18:21:00 32° SSE 18:21:00 32° SSE visible
01 Dec -2.1 17:26:13 10° SSW 17:28:46 21° SE 17:30:46 13° E visible
01 Dec -1.9 19:01:37 10° WSW 19:03:25 30° WSW 19:03:25 30° WSW visible
02 Dec -3.5 18:09:20 10° SW 18:12:32 52° SSE 18:13:09 44° ESE visible
02 Dec -0.2 19:45:40 10° W 19:45:47 11° W 19:45:47 11° W visible
